Temp
-6 -5 -5 -5 -5 -6 -6 -5 -5 -5 -5 -5 -5 -6 -6 -6 -5 -4 -4 -3 -4 -5 -5 -4 -5 -5 -5 -5 -4 -5 -5 -5 -5 -5 -5 -5 -6 -6 -6 -6 -6 -6 -6 -6
-5 -5 -5 -5 -5 -7 -7 -6 -7 -6 -6 -5 -5 -5 -5 -4 -5 -4 -4 -4 -4 -4 -4 -4 -4 -5 -5 -5 -5 -5 -5 -5 -5 -5 -6 -6 -6 -6 -6 -6 -6 -7 -6 -6
-5 -6 -6 -6 -6 -6 -7 -6 -5 -6 -5 -5 -5 -4 -5 -5 -4 -3 -4 -4 -4 -4 -5 -5 -5 -4 -5 -4 -5 -5 -5 -5 -5 -5 -5 -6 -5 -6 -6 -6 -6 -7 -6 -6
-6 -6 -6 -7 -6 -6 -6 -7 -6 -6 -6 -6 -5 -4 -5 -5 -4 -4 -4 -5 -4 -5 -5 -5 -5 -5 -5 -5 -5 -5 -5 -5 -5 -6 -6 -6 -6 -6 -6 -6 -6 -5 -6 -6
-5 -5 -6 -5 -6 -6 -6 -6 -6 -7 -6 -5 -6 -5 -6 -5 -4 -4 -5 -5 -4 -4 -5 -5 -5 -5 -5 -5 -5 -5 -5 -6 -5 -5 -5 -6 -6 -7 -7 -6 -6 -6 -6 -6
-6 -6 -5 -6 -7 -6 -7 -7 -6 -6 -6 -5 -6 -7 -5 -5 -5 -4 -5 -5 -4 -4 -5 -5 -5 -6 -6 -5 -6 -6 -6 -6 -6 -6 -5 -6 -6 -6 -6 -6 -7 -7 -7 -7
-5 -6 -6 -6 -6 -7 -7 -7 -7 -7 -7 -6 -8 -7 -5 -5 -6 -5 -5 -4 -4 -3 -5 -5 -5 -6 -6 -6 -6 -6 -6 -6 -6 -5 -6 -5 -6 -6 -6 -7 -7 -7 -7 -7
-5 -6 -6 -6 -7 -8 -8 -8 -8 -8 -7 -8 -8 -7 -6 -6 -6 -7 -6 -4 -4 -4 -4 -4 -4 -5 -5 -6 -6 -6 -6 -6 -6 -7 -7 -6 -6 -6 -7 -7 -7 -7 -7 -7
-6 -6 -7 -7 -7 -7 -7 -8 -8 -8 -8 -7 -8 -7 -7 -6 -6 -7 -6 -5 -5 -5 -4 -4 -5 -5 -5 -5 -6 -6 -7 -7 -7 -7 -7 -7 -7 -7 -7 -7 -7 -7 -7 -6
-7 -6 -7 -7 -8 -8 -8 -8 -9 -9 -8 -7 -8 -8 -8 -7 -7 -7 -7 -6 -6 -6 -5 -5 -5 -5 -5 -6 -6 -6 -8 -8 -8 -8 -8 -8 -8 -8 -8 -8 -8 -7 -7 -7
-9 -7 -7 -8 -9 -8 -9 -9 -9 -9 -9 -8 -8 -9 -7 -7 -7 -7 -7 -7 -8 -7 -7 -7 -6 -6 -7 -7 -7 -7 -8 -8 -8 -8 -8 -8 -8 -9 -9 -8 -8 -8 -7 -7
-8 -8 -8 -8 -9 -9 -9 -9 -9 -9 -8 -8 -9 -9 -7 -7 -7 -7 -7 -7 -8 -8 -8 -8 -8 -7 -7 -8 -8 -8 -8 -8 -8 -8 -9 -8 -8 -8 -9 -9 -9 -8 -8 -7
-9 -9 -9 -9 -9 -9 -9 -9 -9 -9 -9 -9 -9 -9 -8 -7 -7 -7 -7 -7 -8 -9 -9 -10 -9 -9 -8 -8 -8 -8 -8 -8 -8 -8 -9 -9 -9 -9 -9 -9 -9 -9 -8 -8
-9 -9 -10 -10 -10 -9 -9 -10 -10 -10 -9 -9 -9 -9 -9 -8 -8 -8 -8 -8 -10 -10 -11 -11 -10 -10 -9 -9 -9 -9 -9 -9 -9 -9 -10 -10 -10 -10 -10 -10 -9 -9 -9 -9
-9 -10 -10 -10 -10 -10 -9 -10 -10 -10 -10 -10 -9 -9 -9 -9 -9 -9 -9 -9 -10 -11 -11 -10 -10 -10 -10 -10 -10 -10 -10 -9 -9 -9 -10 -10 -10 -10 -10 -10 -11 -11 -10 -10
-10 -10 -10 -11 -11 -10 -10 -11 -11 -10 -10 -10 -10 -10 -10 -10 -10 -10 -10 -10 -11 -11 -10 -10 -10 -10 -10 -10 -10 -10 -10 -10 -10 -11 -11 -11 -11 -11 -11 -11 -11 -11 -11 -11
-10 -10 -11 -10 -11 -11 -11 -11 -11 -10 -11 -10 -10 -10 -10 -10 -10 -10 -11 -11 -11 -11 -10 -10 -10 -10 -11 -11 -11 -11 -11 -11 -12 -12 -12 -12 -12 -12 -12 -12 -12 -12 -11 -11
-11 -12 -12 -12 -11 -11 -11 -11 -11 -11 -11 -11 -11 -10 -11 -11 -11 -10 -11 -11 -10 -10 -10 -11 -11 -11 -12 -12 -12 -12 -12 -12 -12 -12 -13 -13 -13 -13 -13 -13 -13 -13 -12 -12
-12 -12 -12 -12 -13 -13 -12 -12 -12 -12 -12 -12 -11 -11 -11 -11 -11 -11 -11 -11 -11 -11 -12 -12 -12 -12 -12 -12 -12 -12 -13 -13 -13 -13 -13 -14 -13 -13 -13 -13 -13 -13 -13 -13
-12 -12 -13 -13 -13 -13 -13 -12 -12 -13 -13 -12 -12 -12 -12 -12 -11 -11 -11 -12 -12 -12 -12 -12 -12 -12 -13 -13 -13 -13 -13 -13 -14 -14 -14 -14 -14 -14 -14 -14 -14 -13 -13 -13
-11 -11 -13 -13 -13 -12 -13 -13 -12 -12 -12 -12 -11 -12 -12 -12 -12 -11 -11 -11 -11 -11 -12 -12 -13 -13 -13 -13 -14 -14 -14 -14 -14 -14 -14 -14 -14 -14 -14 -14 -14 -14 -13 -13
-12 -12 -13 -13 -13 -13 -13 -12 -13 -12 -12 -12 -12 -12 -11 -11 -11 -11 -12 -12 -12 -12 -12 -12 -13 -13 -14 -14 -14 -14 -15 -15 -15 -15 -15 -15 -15 -15 -15 -14 -14 -14 -14 -14
-12 -12 -13 -13 -13 -12 -12 -13 -13 -12 -12 -12 -12 -13 -12 -12 -12 -13 -13 -13 -13 -13 -13 -13 -13 -14 -14 -14 -15 -15 -15 -15 -16 -17 -16 -16 -16 -16 -16 -15 -15 -15 -15 -14
-12 -12 -12 -13 -13 -13 -14 -14 -13 -13 -12 -12 -12 -12 -12 -13 -13 -13 -13 -13 -13 -13 -13 -14 -14 -14 -14 -14 -15 -16 -16 -17 -18 -18 -18 -18 -17 -17 -16 -16 -16 -15 -15 -15
-12 -12 -12 -13 -12 -13 -13 -13 -12 -12 -12 -12 -12 -12 -13 -13 -13 -13 -13 -14 -14 -13 -14 -14 -14 -14 -14 -15 -15 -16 -16 -17 -18 -19 -19 -18 -18 -18 -17 -17 -16 -16 -16 -15
-13 -13 -13 -13 -12 -12 -12 -13 -12 -13 -13 -13 -13 -13 -13 -13 -13 -13 -14 -13 -13 -13 -14 -14 -14 -14 -15 -15 -16 -16 -16 -17 -18 -18 -18 -19 -18 -18 -18 -17 -17 -17 -17 -17
Height
5927 5928 5930 5932 5933 5933 5933 5931 5935 5932 5934 5933 5931 5938 5939 5939 5939 5937 5936 5936 5937 5938 5940 5940 5940 5942 5943 5945 5945 5945 5946 5946 5947 5948 5949 5950 5950 5951 5952 5951 5951 5950 5949 5947
5929 5929 5930 5931 5930 5933 5934 5934 5933 5930 5934 5934 5937 5936 5935 5938 5942 5941 5937 5935 5936 5936 5936 5940 5941 5941 5943 5943 5944 5944 5945 5945 5946 5947 5947 5946 5947 5948 5949 5948 5949 5948 5947 5945
5924 5925 5926 5928 5930 5933 5932 5930 5928 5929 5930 5934 5934 5934 5931 5933 5936 5941 5941 5939 5939 5939 5938 5939 5941 5942 5943 5943 5943 5943 5943 5944 5944 5944 5944 5944 5944 5944 5944 5945 5945 5945 5946 5946
5924 5924 5925 5927 5927 5929 5930 5926 5927 5927 5930 5932 5934 5935 5931 5932 5932 5936 5941 5940 5937 5939 5940 5940 5940 5941 5942 5943 5944 5943 5944 5943 5943 5943 5942 5941 5943 5943 5941 5941 5943 5942 5943 5941
5922 5921 5919 5921 5923 5924 5929 5924 5927 5926 5929 5932 5933 5934 5935 5932 5932 5932 5935 5939 5937 5936 5937 5938 5938 5938 5940 5941 5944 5942 5941 5942 5940 5941 5940 5938 5939 5939 5935 5937 5939 5941 5941 5940
5918 5917 5918 5920 5923 5922 5928 5923 5924 5924 5925 5929 5927 5927 5932 5931 5929 5929 5930 5934 5934 5933 5934 5938 5936 5935 5936 5938 5937 5937 5938 5939 5937 5938 5937 5935 5935 5935 5935 5935 5935 5935 5938 5935
5914 5915 5915 5916 5921 5924 5925 5926 5922 5921 5920 5926 5921 5923 5926 5927 5927 5926 5927 5929 5929 5929 5929 5931 5935 5936 5934 5933 5932 5933 5933 5934 5934 5934 5935 5931 5932 5931 5930 5929 5930 5928 5930 5931
5908 5911 5912 5913 5912 5915 5917 5919 5919 5919 5923 5922 5919 5918 5922 5922 5924 5923 5922 5923 5924 5925 5925 5925 5925 5931 5930 5930 5927 5926 5928 5927 5926 5925 5929 5927 5927 5927 5926 5924 5924 5923 5922 5923
5902 5905 5905 5908 5908 5908 5911 5911 5913 5913 5915 5915 5913 5913 5915 5919 5919 5916 5913 5917 5919 5919 5919 5919 5921 5920 5921 5923 5922 5921 5921 5921 5920 5919 5920 5920 5920 5920 5919 5917 5916 5917 5916 5915
5895 5897 5901 5903 5900 5902 5903 5906 5907 5907 5908 5909 5908 5907 5909 5911 5912 5912 5912 5911 5911 5911 5911 5912 5913 5912 5912 5913 5914 5914 5914 5915 5915 5915 5914 5912 5913 5912 5911 5910 5909 5907 5905 5906
5887 5888 5897 5897 5895 5895 5897 5898 5901 5903 5903 5903 5904 5903 5904 5905 5904 5902 5902 5903 5904 5906 5907 5906 5906 5906 5906 5906 5907 5908 5908 5907 5908 5906 5904 5903 5902 5903 5902 5900 5899 5899 5897 5896
5882 5882 5883 5892 5890 5891 5891 5890 5893 5892 5895 5895 5896 5897 5899 5900 5897 5896 5896 5896 5894 5894 5899 5899 5900 5899 5899 5900 5899 5899 5898 5898 5897 5896 5896 5895 5891 5889 5890 5889 5888 5887 5887 5882
5877 5877 5877 5880 5887 5885 5884 5885 5885 5885 5886 5887 5887 5887 5891 5891 5893 5891 5889 5889 5876 5888 5892 5895 5895 5895 5894 5893 5892 5891 5889 5888 5888 5887 5886 5885 5884 5882 5880 5879 5878 5877 5876 5873
5869 5870 5871 5874 5876 5878 5877 5875 5875 5877 5878 5879 5880 5879 5883 5885 5885 5883 5881 5880 5873 5878 5883 5885 5883 5882 5883 5883 5883 5881 5879 5879 5877 5876 5875 5874 5872 5870 5867 5865 5864 5864 5864 5864
5863 5864 5864 5865 5868 5869 5868 5867 5866 5868 5869 5872 5874 5875 5877 5877 5876 5876 5876 5874 5873 5873 5874 5876 5876 5874 5872 5871 5872 5872 5870 5868 5866 5864 5862 5861 5859 5858 5856 5855 5853 5853 5853 5852
5852 5856 5857 5859 5860 5861 5859 5858 5859 5861 5863 5865 5867 5868 5869 5871 5871 5872 5871 5869 5869 5869 5868 5866 5865 5864 5863 5862 5861 5859 5857 5854 5850 5849 5847 5846 5845 5845 5844 5842 5841 5840 5839 5838
5844 5845 5848 5850 5853 5853 5852 5850 5852 5854 5856 5859 5861 5864 5864 5864 5864 5864 5864 5863 5862 5861 5859 5857 5855 5851 5849 5847 5845 5843 5841 5839 5838 5838 5835 5834 5833 5830 5830 5828 5827 5826 5825 5823
5835 5836 5839 5841 5844 5848 5840 5846 5847 5849 5850 5852 5853 5854 5853 5855 5857 5857 5857 5855 5851 5850 5848 5846 5843 5840 5838 5835 5833 5831 5828 5826 5824 5824 5822 5820 5818 5818 5817 5815 5815 5813 5811 5809
5832 5833 5833 5835 5836 5839 5839 5840 5842 5844 5844 5843 5846 5847 5846 5846 5848 5850 5850 5846 5843 5843 5840 5837 5834 5831 5827 5824 5822 5819 5817 5814 5812 5811 5810 5808 5806 5805 5804 5802 5801 5798 5797 5795
5826 5825 5827 5829 5831 5835 5835 5836 5838 5833 5833 5839 5839 5840 5842 5841 5843 5842 5840 5837 5833 5832 5828 5826 5823 5820 5817 5814 5811 5808 5805 5803 5800 5798 5795 5794 5792 5791 5789 5788 5786 5784 5783 5781
5822 5821 5822 5825 5827 5828 5830 5831 5830 5830 5832 5827 5830 5830 5831 5831 5834 5832 5828 5826 5823 5820 5817 5815 5813 5810 5807 5804 5801 5797 5794 5790 5786 5783 5781 5779 5776 5775 5774 5773 5772 5771 5769 5766
5821 5822 5822 5823 5824 5826 5826 5825 5825 5822 5820 5825 5824 5822 5822 5822 5821 5820 5818 5815 5811 5808 5806 5803 5802 5800 5797 5794 5790 5786 5781 5777 5772 5769 5766 5764 5762 5760 5760 5759 5758 5757 5755 5753
5820 5820 5820 5820 5819 5818 5818 5819 5818 5816 5817 5818 5817 5816 5816 5814 5814 5813 5811 5808 5805 5802 5799 5797 5794 5791 5786 5781 5777 5772 5767 5760 5753 5749 5747 5747 5747 5747 5747 5747 5745 5744 5742 5740
5816 5816 5815 5815 5816 5813 5811 5811 5811 5809 5809 5809 5809 5808 5810 5810 5810 5808 5805 5803 5800 5796 5793 5790 5786 5781 5775 5770 5765 5761 5755 5748 5740 5736 5733 5733 5734 5735 5735 5734 5734 5733 5730 5728
5815 5814 5812 5812 5811 5810 5809 5807 5806 5806 5806 5804 5804 5804 5803 5802 5800 5798 5796 5793 5791 5789 5787 5783 5779 5775 5769 5762 5758 5754 5748 5742 5736 5731 5728 5727 5725 5725 5724 5724 5723 5721 5719 5717
5806 5806 5808 5809 5807 5806 5807 5806 5805 5803 5801 5801 5800 5799 5797 5794 5792 5790 5787 5784 5782 5780 5778 5775 5771 5767 5762 5757 5752 5748 5743 5738 5733 5728 5725 5722 5719 5718 5717 5716 5715 5714 5712 5709
Wind_Speed
8 7 12 14 13 15 12 8 4 8 7 7 8 6 3 11 8 4 7 6 5 7 6 4 2 2 3 2 4 5 6 5 4 3 3 4 6 4 4 7 5 5 6 7
8 3 6 5 9 12 7 3 10 13 4 3 8 12 3 3 9 8 5 5 6 3 1 2 3 1 3 4 5 7 8 8 8 6 6 5 5 5 7 11 10 9 10 13
8 5 3 3 4 5 1 6 10 13 6 9 6 11 16 17 15 4 7 4 4 5 3 3 4 5 7 6 6 8 8 9 9 9 9 8 7 6 10 10 14 14 14 17
17 8 5 5 2 4 7 12 11 15 3 1 4 8 12 14 12 12 9 3 2 1 3 3 3 2 4 6 6 9 8 8 10 11 11 10 11 10 14 15 16 18 16 17
15 16 12 10 6 13 12 16 15 19 11 7 8 13 9 8 4 12 12 10 14 9 7 6 7 4 5 6 7 7 9 10 14 10 16 12 11 11 19 18 18 21 21 19
17 19 24 18 15 17 15 20 23 22 22 14 20 20 8 11 14 11 14 15 7 11 13 13 11 5 11 12 13 14 14 14 15 16 17 13 10 12 7 11 18 22 22 19
18 20 22 26 19 17 20 25 25 23 28 10 18 18 13 12 15 22 17 15 13 18 17 16 19 8 12 13 20 25 19 15 15 15 18 15 15 12 16 18 21 19 18 21
23 22 21 22 22 16 9 16 28 27 22 23 26 27 20 19 17 18 24 25 22 17 16 15 17 12 10 13 20 22 21 14 20 13 14 17 20 22 20 21 22 25 26 22
21 23 21 24 25 25 18 19 17 22 27 31 29 30 23 16 13 20 28 26 23 21 24 25 26 24 10 15 16 19 22 23 24 24 26 23 23 25 25 27 27 30 29 31
20 21 18 21 26 27 20 21 19 23 27 31 27 27 27 25 21 19 25 25 28 28 28 27 25 17 16 17 20 22 25 25 24 26 26 27 28 28 28 30 34 37 37 36
24 29 15 26 23 23 19 23 18 20 29 29 28 24 30 26 23 20 29 29 23 26 26 27 24 26 24 26 26 26 28 31 29 32 33 34 34 34 37 38 40 41 42 41
27 29 32 23 28 22 24 19 20 26 24 31 32 30 35 35 33 29 34 32 32 30 27 27 23 23 26 29 31 32 34 37 38 38 36 39 38 37 41 44 44 42 42 46
32 33 32 29 31 27 27 24 20 14 19 25 34 34 32 36 35 31 31 38 21 15 20 22 26 28 31 34 35 37 38 40 40 40 40 41 44 45 47 47 46 47 44 40
40 38 32 29 28 32 38 29 22 22 29 30 29 34 38 37 37 36 38 41 36 20 25 30 32 37 41 43 42 39 38 39 41 42 41 43 46 47 48 49 48 46 41 43
44 40 36 30 29 30 36 34 24 28 36 37 33 38 34 34 33 35 39 36 27 22 27 29 33 38 39 36 37 38 38 40 42 44 45 44 47 47 51 48 49 47 48 50
51 47 44 31 25 29 37 27 26 30 33 31 33 38 40 33 35 37 35 33 27 30 38 43 45 45 46 42 46 47 52 48 46 45 46 47 48 48 50 50 50 51 50 50
44 52 52 46 36 35 34 33 32 34 27 31 30 33 44 40 42 42 38 31 35 39 47 50 55 54 50 51 50 49 44 43 44 38 37 37 40 50 49 50 51 51 52 52
42 39 31 36 39 43 46 43 45 45 37 36 34 41 39 40 39 43 39 40 46 48 51 51 49 46 46 46 47 47 44 43 45 48 49 50 52 53 53 53 53 53 54 54
23 31 32 37 24 28 35 37 35 37 40 39 34 40 43 39 40 31 38 39 45 48 50 50 49 49 50 48 47 45 46 47 47 48 51 51 53 54 54 55 55 55 54 53
14 23 26 32 31 31 27 35 32 35 37 36 32 37 27 36 41 36 38 43 42 41 37 38 37 36 38 41 43 44 47 47 48 49 50 51 52 52 52 53 53 52 50 48
9 7 16 22 17 16 25 25 33 32 41 29 35 28 26 18 26 32 33 33 32 34 35 35 34 34 36 38 40 42 45 47 49 49 49 49 49 48 47 47 46 46 45 45
9 8 11 18 22 25 28 31 32 35 34 34 28 22 24 23 23 23 24 26 29 33 37 39 37 37 38 38 39 41 44 48 50 51 51 50 48 48 47 46 45 43 41 42
9 11 13 18 18 18 19 20 20 22 22 22 17 18 19 19 22 21 21 23 28 32 36 36 31 30 33 35 35 36 40 46 48 47 48 46 43 40 38 37 37 37 40 42
13 15 9 11 13 17 16 17 18 18 18 17 16 17 16 16 18 17 18 22 25 28 24 25 28 31 31 31 30 30 33 36 34 32 33 34 32 30 31 32 35 36 37 38
9 10 5 12 15 12 10 13 16 15 14 14 16 17 18 18 19 20 23 22 21 22 22 23 26 26 26 24 21 23 25 26 25 22 21 23 26 26 28 30 30 30 29 29
11 11 5 11 8 9 8 10 11 12 15 15 15 17 18 21 24 24 25 23 24 22 21 23 23 25 24 25 25 24 22 22 24 21 19 17 18 19 19 18 20 20 16 19
Wind_Direction
126 100 86 69 63 73 79 80 209 270 193 243 297 27 33 45 10 39 78 74 113 146 144 149 115 148 131 209 241 246 253 258 265 270 235 241 260 261 235 270 265 279 309 316
183 117 59 31 82 78 74 294 348 303 53 221 25 13 203 17 10 330 41 59 55 94 147 169 224 175 223 209 258 268 273 276 279 284 276 277 283 297 282 278 282 278 293 292
227 139 34 126 119 123 15 295 297 316 359 40 357 340 11 4 337 356 350 351 79 80 67 336 275 249 246 231 234 254 260 272 281 280 280 276 270 270 263 261 268 266 277 282
226 215 221 205 194 281 245 278 296 307 314 338 63 354 347 342 325 330 339 298 301 89 141 182 221 240 270 280 263 273 285 287 288 286 278 275 278 276 277 270 269 269 269 271
240 212 220 225 266 272 235 272 283 285 292 278 348 317 312 309 329 300 306 266 264 277 275 258 262 261 246 237 265 275 274 277 276 295 269 248 256 284 256 266 272 278 276 278
233 247 219 215 224 246 238 255 262 272 275 282 305 294 262 281 283 286 290 272 232 247 262 253 253 266 290 291 279 267 273 293 272 262 293 236 256 286 306 273 275 277 277 275
243 236 251 239 250 255 250 236 250 269 268 269 260 257 242 262 281 273 265 275 254 298 238 244 248 222 245 268 269 277 279 290 257 269 275 266 277 276 277 282 286 284 278 278
243 242 243 246 235 216 243 246 243 244 232 243 256 260 255 261 264 267 264 259 272 282 251 263 294 272 237 241 257 271 280 255 265 241 263 247 264 277 279 280 285 280 285 291
252 245 235 234 242 244 239 236 260 249 246 236 249 260 270 250 285 282 276 263 263 263 252 250 264 277 252 246 249 259 259 262 256 271 274 277 276 278 280 283 282 282 281 280
271 263 249 226 237 244 253 243 241 247 246 235 249 259 265 274 274 277 263 254 272 257 254 261 265 263 282 276 260 272 270 268 267 266 269 273 275 276 279 277 278 282 283 282
263 269 239 220 230 230 227 246 262 251 253 257 248 254 252 262 262 263 249 262 240 243 248 254 260 263 275 278 276 274 276 279 279 281 276 272 273 275 274 273 275 279 279 282
255 266 271 236 219 219 235 222 247 261 262 252 246 250 249 250 266 269 271 247 227 221 235 251 262 272 276 276 276 277 280 282 281 278 280 278 272 268 269 273 279 276 288 268
247 252 262 263 222 227 245 244 254 265 234 240 240 246 244 247 254 267 265 248 226 254 270 276 284 286 286 285 282 279 280 279 278 276 269 269 273 274 276 276 277 278 282 280
243 246 248 256 258 233 237 244 236 239 228 231 241 246 247 251 255 258 267 267 302 287 284 287 289 290 291 290 288 287 283 280 278 276 273 269 273 274 274 278 279 282 281 271
241 240 239 248 252 251 246 240 238 238 233 243 249 242 246 248 255 261 266 273 288 289 293 290 291 298 298 289 282 278 278 280 281 280 278 275 273 274 275 278 277 277 275 275
246 243 237 230 229 234 238 240 243 239 252 254 239 242 245 248 251 257 268 271 267 277 296 302 301 296 290 285 282 276 282 281 273 269 269 270 270 271 271 273 276 278 280 279
246 248 245 237 231 230 242 249 248 249 253 252 252 250 246 252 254 257 260 267 282 285 290 295 294 293 292 287 286 283 279 277 276 274 277 273 266 272 274 276 277 277 280 282
238 246 248 248 245 240 250 255 257 258 256 246 245 258 245 245 250 259 268 276 279 283 284 286 288 289 290 289 285 284 282 280 276 274 273 273 274 274 275 276 277 278 279 280
248 253 265 253 234 238 242 245 254 249 248 244 239 245 252 254 250 256 268 269 271 281 284 287 285 281 282 282 282 282 281 280 276 274 273 272 273 273 275 276 279 280 282 282
238 257 247 240 243 239 250 258 258 276 271 258 243 258 266 279 259 260 267 275 280 283 286 284 283 283 282 281 280 280 280 279 276 274 274 274 274 274 274 275 275 277 278 278
252 235 219 233 269 264 258 261 262 282 278 286 280 301 307 273 262 269 275 281 284 286 287 289 290 290 288 285 284 284 282 281 280 278 276 273 272 272 272 273 274 276 279 279
295 279 249 255 268 267 267 272 271 279 277 276 273 287 290 287 286 284 288 289 291 293 293 294 298 299 298 296 294 292 289 286 281 277 274 271 270 271 271 272 275 277 278 280
257 237 242 259 261 295 251 248 268 267 263 280 287 276 286 289 287 289 288 287 287 288 291 299 303 303 304 301 297 294 296 295 287 276 271 269 269 271 274 275 277 277 282 287
246 226 255 249 283 295 288 284 275 280 289 295 288 291 290 287 284 284 287 286 288 285 291 298 304 314 313 310 304 307 309 314 303 293 284 275 269 270 274 274 278 284 291 293
244 245 274 274 278 261 259 267 275 283 284 293 295 296 296 299 306 310 306 301 291 291 299 303 308 315 322 332 332 332 332 325 320 314 299 287 278 271 271 278 286 288 288 289
289 283 259 282 285 273 271 267 278 292 296 300 301 304 310 316 316 315 314 301 295 304 308 312 316 316 313 323 323 324 319 313 311 312 311 299 289 283 279 278 278 277 283 297